Location: Klickitat County Star Party
(45.8642°N, 120.6771°W)
Time: 18:38:11
(UTC-07:00)

SO-50 - Pass Details

Date: 04 June 2019
Orbit: 586 x 700 km, 64.6° (Epoch: 24 June)

Event Time Altitude Azimuth Distance (km) Brightness Sun altitude
Rises 01:00:57 0° 318° (NW) 3,080 ? -21.7°
Reaches altitude 10° 01:03:24 10° 312° (NW) 2,149 ? -21.7°
Maximum altitude 01:08:03 44° 242° (WSW) 939 ? -21.7°
Enters shadow 01:08:16 44° 233° (SW) 943 ? -21.7°
